Location: Bedford
(41.3931°N, 81.5365°W)
Time: 16:02:06
(UTC+00:00)

Daily predictions for brighter satellites

Satellite Brightness Start Highest point End
(mag) Time Altitude Azimuth Time Altitude Azimuth Time Altitude Azimuth
STARLINK 1044 2.7 12:04:19 10° NW 12:07:11 71° SW 12:10:02 10° SE
Cosmos 1110 Rocket 4.0 12:02:15 10° SSW 12:07:27 81° WNW 12:12:38 10° NNE
Feng Yun 1-1 Rocket 4.3 12:02:33 10° NNE 12:08:09 82° WNW 12:13:51 10° SSW
OE (NEXTSAT) 4.4 12:05:49 10° WNW 12:09:22 75° SSW 12:12:52 10° ESE
Cosmos 2266 Rocket 4.1 12:04:36 10° N 12:10:53 86° E 12:17:00 10° S
Meteor 1-13 Rocket 4.2 12:05:50 10° N 12:11:23 88° WSW 12:16:58 10° S
CZ-3 Stage 3 4.5 12:16:02 10° WSW 12:27:07 31° SSW 12:30:35 10° SE
Cosmos 44 Rocket 4.5 22:20:43 10° NW 22:25:13 47° WSW 22:29:44 10° S
CENTAUR R/B 3.7 22:17:38 10° NW 22:25:47 70° WSW 22:34:26 10° SSE
USA 215 3.9 22:23:16 10° NE 22:29:30 49° NNW 22:35:43 10° WSW
CZ-4B R/B 3.9 22:27:11 10° S 22:32:24 60° WSW 22:37:44 10° NNW
Exosat Rocket 3.8 22:27:47 10° S 22:33:14 54° ESE 22:38:06 10° NNE
SMAP 3.1 22:33:00 10° SSE 22:37:33 57° ENE 22:42:07 10° N
BREEZE-M R/B 4.4 22:34:43 10° W 22:40:35 32° NNW 22:43:49 10° NE
COBE Rocket 3.8 22:37:48 10° NNE 22:42:24 59° E 22:47:01 10° S
Okean O Rocket 3.1 22:39:15 10° S 22:43:20 41° W 22:47:28 10° NNW
Meteor 2-6 Rocket 4.3 22:38:45 10° SSW 22:44:08 79° W 22:49:34 10° N
ALOS 4.4 22:41:51 10° SSW 22:45:59 31° W 22:50:09 10° NNW
Cosmos 1862 Rocket 3.6 22:41:51 10° S 22:46:05 58° E 22:50:23 10° NNE
Cosmos 2278 Rocket 2.3 22:41:58 10° NNW 22:47:31 52° ENE 22:53:00 10° SE
Cosmos 2242 Rocket 4.1 22:45:04 10° SSE 22:49:17 39° E 22:53:33 10° NNE
FALCON 9 DEB 4.5 22:47:29 10° SSW 22:50:28 26° SE 22:52:40 15° E
Cosmos 1812 2.7 22:46:46 10° S 22:50:35 68° E 22:54:26 10° NNE
Cosmos 2360 Rocket 4.3 22:46:17 10° WSW 22:50:36 22° NW 22:54:56 10° N
Shenzhou-11 Module 1.8 22:50:57 10° W 22:53:40 61° N 22:55:26 19° ENE
Cosmos 304 Rocket 4.3 22:49:26 10° NNW 22:54:11 63° WSW 22:58:55 10° S
STARLINK-46 4.3 22:54:10 10° W 22:56:21 22° NNW 22:58:09 12° NNE
Okean-O 2.8 22:53:54 10° SSE 22:58:10 50° ENE 23:02:28 10° N
RESURS DK-1 3.3 22:54:36 10° SW 22:58:34 47° WNW 23:02:35 10° NNE
NOSS 0 Rocket 3.9 22:52:25 10° SSW 22:58:37 81° ESE 23:04:53 10° NNE
SL-16 R/B 3.3 22:55:29 10° SSE 22:59:53 24° E 23:02:49 16° ENE
USA 267 3.4 22:55:55 10° SE 23:02:28 79° SW 23:09:02 10° NW
Cosmos 292 Rocket 4.4 22:59:56 10° N 23:04:20 32° ENE 23:08:40 10° SE
Cosmos 2333 Rocket 3.3 22:59:48 10° SW 23:05:15 44° WNW 23:10:47 10° NNE
ATLAS 3B R/B 3.9 23:00:21 10° NW 23:06:43 45° WSW 23:13:15 10° S
ERBS 4.3 23:03:48 10° WNW 23:06:48 31° SW 23:09:47 10° SSE
OAO 3 Rocket 4.4 23:03:53 10° SW 23:08:04 32° SSE 23:11:34 14° ESE
Cosmos 1092 Rocket 4.1 23:03:27 10° SSE 23:09:35 55° E 23:15:41 10° NNE
STARLINK-52 4.2 23:07:38 10° SSW 23:10:47 32° SE 23:12:07 24° E
Cosmos 2237 Rocket 2.2 23:05:45 10° SSW 23:11:26 81° ESE 23:17:09 10° NNE
AQUARIUS 4.5 23:07:11 10° S 23:11:39 70° W 23:16:08 10° NNW
Cosmos 1500 3.4 23:08:40 10° NNW 23:12:25 71° W 23:16:08 10° S
NOAA 12 4.0 23:07:59 10° SSE 23:13:17 79° ENE 23:18:36 10° N
YAOGAN 6 2.9 23:11:18 10° SE 23:14:35 39° ENE 23:17:56 10° N
Meteor 1-11 Rocket 4.1 23:12:04 10° NNW 23:18:02 75° W 23:23:58 10° S
STARLINK-29 3.7 23:15:35 10° SSW 23:18:56 44° SE 23:20:06 31° E
Meteor 1-27 Rocket 4.0 23:14:22 10° SSW 23:20:03 75° W 23:25:55 10° N
H-2A R/B 3.8 23:17:01 10° S 23:20:35 46° W 23:24:10 10° NNW
Cosmos 1908 Rocket 3.5 23:19:07 10° N 23:23:29 61° E 23:27:47 10° SSE
Cosmos 1536 2.8 23:20:50 10° N 23:24:52 85° W 23:28:51 10° S
COSMO-SKYMED 1 2.5 23:22:02 11° NNE 23:26:07 63° E 23:30:24 10° S
Cosmos 1441 Rocket 3.6 23:23:10 10° N 23:26:45 37° ENE 23:30:15 10° SE
Cosmos 2219 Rocket 3.8 23:22:11 10° WSW 23:27:06 30° NW 23:32:04 10° N
YAOGAN 1 2.9 23:27:59 10° SE 23:32:03 42° ENE 23:36:08 10° N
CZ-4 R/B 1.3 23:29:14 10° SSE 23:33:04 54° ENE 23:36:52 10° N
OAO 2 Rocket 4.2 23:29:52 10° WSW 23:34:32 40° S 23:37:08 23° ESE
Lacrosse 5 rocket 2.9 23:33:27 10° W 23:37:11 29° NW 23:39:14 19° N
Cosmos 1980 4.3 23:36:38 10° SW 23:42:09 54° WNW 23:47:27 11° NNE
ISS -3.8 23:39:02 10° NW 23:42:24 85° SW 23:42:51 64° SE
Okean 1-7 2.9 23:40:08 10° S 23:44:26 75° E 23:46:52 26° NNE
Meteor 1-18 Rocket 4.4 23:39:45 10° SSE 23:45:17 51° E 23:48:09 27° NNE
Okean 1 3.6 23:41:43 10° SSE 23:45:07 46° ESE 23:45:07 46° ESE
Cosmos 1943 Rocket 4.0 23:42:29 10° N 23:44:04 15° NNE 23:44:04 15° NNE
SL-4 R/B 3.6 23:44:01 10° WNW 23:47:01 21° N 23:47:31 20° N
NOSS 7 (D) 4.1 23:44:09 10° NW 23:47:06 82° NNW 23:47:06 82° NNW
STARLINK-60 3.3 23:44:29 10° WSW 23:47:49 59° NW 23:48:02 57° NNW
CSL-04 Rocket 3.5 23:44:03 10° SSE 23:49:15 65° ENE 23:54:30 10° N
Cosmos 2297 3.8 23:43:48 10° NNW 23:49:22 51° ENE 23:51:40 32° ESE
Cosmos 1174 4.2 23:45:47 10° SSW 23:51:06 64° ESE 23:51:58 53° ENE
